Time,TemperatureF,DewpointF,PressureIn,WindDirection,WindDirectionDegrees,WindSpeedMPH,WindSpeedGustMPH,Humidity,HourlyPrecipIn,Conditions,Clouds,dailyrainin,SolarRadiationWatts/m^2,SoftwareType,DateUTC
2013-02-05 00:01:00,67.0,58.0,-100.00,NE,52,4.0,7.0,74,0.00,,,0.00,0.000000,,2013-02-05 10:01:00,
2013-02-05 00:11:00,67.0,58.0,-100.00,NE,52,4.0,7.0,74,0.00,,,0.00,0.000000,,2013-02-05 10:11:00,
2013-02-05 00:32:00,67.0,60.0,-100.00,ESE,109,6.0,7.0,78,0.00,,,0.00,0.000000,,2013-02-05 10:32:00,
2013-02-05 00:42:00,67.0,60.0,-100.00,ESE,109,6.0,7.0,78,0.00,,,0.00,0.000000,,2013-02-05 10:42:00,
2013-02-05 00:52:00,67.0,60.0,-100.00,ESE,109,6.0,7.0,78,0.00,,,0.00,0.000000,,2013-02-05 10:52:00,
2013-02-05 01:01:00,67.0,60.0,-100.00,ESE,109,6.0,7.0,78,0.00,,,0.00,0.000000,,2013-02-05 11:01:00,
2013-02-05 01:11:00,67.0,60.0,-100.00,ESE,109,6.0,7.0,78,0.00,,,0.00,0.000000,,2013-02-05 11:11:00,
2013-02-05 01:32:00,69.0,59.0,-100.00,ESE,113,5.0,9.0,71,0.00,,,0.00,0.000000,,2013-02-05 11:32:00,
2013-02-05 01:42:00,69.0,59.0,-100.00,ESE,113,5.0,9.0,71,0.00,,,0.00,0.000000,,2013-02-05 11:42:00,
2013-02-05 01:52:00,69.0,59.0,-100.00,ESE,113,5.0,9.0,71,0.00,,,0.00,0.000000,,2013-02-05 11:52:00,
2013-02-05 02:01:00,69.0,59.0,-100.00,ESE,113,5.0,9.0,71,0.00,,,0.00,0.000000,,2013-02-05 12:01:00,
2013-02-05 02:12:00,69.0,59.0,-100.00,ESE,113,5.0,9.0,71,0.00,,,0.00,0.000000,,2013-02-05 12:12:00,
2013-02-05 02:32:00,65.0,57.0,-100.00,SSW,194,1.0,6.0,76,0.00,,,0.00,0.000000,,2013-02-05 12:32:00,
2013-02-05 02:42:00,65.0,57.0,-100.00,SSW,194,1.0,6.0,76,0.00,,,0.00,0.000000,,2013-02-05 12:42:00,
2013-02-05 02:52:00,65.0,57.0,-100.00,SSW,194,1.0,6.0,76,0.00,,,0.00,0.000000,,2013-02-05 12:52:00,
2013-02-05 03:01:00,65.0,57.0,-100.00,SSW,194,1.0,6.0,76,0.00,,,0.00,0.000000,,2013-02-05 13:01:00,
2013-02-05 03:11:00,65.0,57.0,-100.00,SSW,194,1.0,6.0,76,0.00,,,0.00,0.000000,,2013-02-05 13:11:00,
2013-02-05 03:42:00,65.0,60.0,-100.00,ENE,66,2.0,4.0,83,0.00,,,0.00,0.000000,,2013-02-05 13:42:00,
2013-02-05 03:52:00,65.0,60.0,-100.00,ENE,66,2.0,4.0,83,0.00,,,0.00,0.000000,,2013-02-05 13:52:00,
2013-02-05 04:01:00,65.0,60.0,-100.00,ENE,66,2.0,4.0,83,0.00,,,0.00,0.000000,,2013-02-05 14:01:00,
2013-02-05 04:12:00,65.0,60.0,-100.00,ENE,66,2.0,4.0,83,0.00,,,0.00,0.000000,,2013-02-05 14:12:00,
2013-02-05 04:42:00,65.0,56.0,-100.00,ENE,57,2.0,7.0,73,0.00,,,0.00,0.000000,,2013-02-05 14:42:00,
2013-02-05 04:52:00,65.0,56.0,-100.00,ENE,57,2.0,7.0,73,0.00,,,0.00,0.000000,,2013-02-05 14:52:00,
2013-02-05 05:01:00,65.0,56.0,-100.00,ENE,57,2.0,7.0,73,0.00,,,0.00,0.000000,,2013-02-05 15:01:00,
2013-02-05 05:11:00,65.0,56.0,-100.00,ENE,57,2.0,7.0,73,0.00,,,0.00,0.000000,,2013-02-05 15:11:00,
2013-02-05 05:32:00,66.0,56.0,-100.00,ENE,62,3.0,9.0,70,0.00,,,0.00,0.000000,,2013-02-05 15:32:00,
2013-02-05 05:42:00,66.0,56.0,-100.00,ENE,62,3.0,9.0,70,0.00,,,0.00,0.000000,,2013-02-05 15:42:00,
2013-02-05 05:52:00,66.0,56.0,-100.00,ENE,62,3.0,9.0,70,0.00,,,0.00,0.000000,,2013-02-05 15:52:00,
2013-02-05 06:01:00,66.0,56.0,-100.00,ENE,62,3.0,9.0,70,0.00,,,0.00,0.000000,,2013-02-05 16:01:00,
2013-02-05 06:11:00,66.0,56.0,-100.00,ENE,62,3.0,9.0,70,0.00,,,0.00,0.000000,,2013-02-05 16:11:00,
2013-02-05 06:33:00,63.0,56.0,-100.00,ESE,115,2.0,7.0,78,0.00,,,-99.99,0.000000,,2013-02-05 16:33:00,
2013-02-05 06:42:00,63.0,56.0,-100.00,ESE,115,2.0,7.0,78,0.00,,,-99.99,0.000000,,2013-02-05 16:42:00,
2013-02-05 06:52:00,63.0,56.0,-100.00,ESE,115,2.0,7.0,78,0.00,,,-99.99,0.000000,,2013-02-05 16:52:00,
2013-02-05 07:01:00,63.0,56.0,-100.00,ESE,115,2.0,7.0,78,0.00,,,-99.99,0.000000,,2013-02-05 17:01:00,
2013-02-05 07:11:00,63.0,56.0,-100.00,ESE,115,2.0,7.0,78,0.00,,,-99.99,0.000000,,2013-02-05 17:11:00,
2013-02-05 07:32:00,65.0,59.0,-100.00,NE,39,6.0,8.0,80,0.00,,,0.00,3.000000,,2013-02-05 17:32:00,
2013-02-05 07:42:00,65.0,59.0,-100.00,NE,39,6.0,8.0,80,0.00,,,0.00,3.000000,,2013-02-05 17:42:00,
2013-02-05 07:52:00,65.0,59.0,-100.00,NE,39,6.0,8.0,80,0.00,,,0.00,3.000000,,2013-02-05 17:52:00,
2013-02-05 08:01:00,65.0,59.0,-100.00,NE,39,6.0,8.0,80,0.00,,,0.00,3.000000,,2013-02-05 18:01:00,
2013-02-05 08:11:00,65.0,59.0,-100.00,NE,39,6.0,8.0,80,0.00,,,0.00,3.000000,,2013-02-05 18:11:00,
2013-02-05 08:32:00,70.0,61.0,-100.00,ENE,63,2.0,7.0,74,0.00,,,0.00,73.000000,,2013-02-05 18:32:00,
2013-02-05 08:42:00,70.0,61.0,-100.00,ENE,63,2.0,7.0,74,0.00,,,0.00,73.000000,,2013-02-05 18:42:00,
2013-02-05 08:52:00,70.0,61.0,-100.00,ENE,63,2.0,7.0,74,0.00,,,0.00,73.000000,,2013-02-05 18:52:00,
2013-02-05 09:02:00,70.0,61.0,-100.00,ENE,63,2.0,7.0,74,0.00,,,0.00,73.000000,,2013-02-05 19:02:00,
2013-02-05 09:11:00,70.0,61.0,-100.00,ENE,63,2.0,7.0,74,0.00,,,0.00,73.000000,,2013-02-05 19:11:00,
2013-02-05 09:42:00,79.0,63.0,-100.00,ESE,109,4.0,7.0,59,0.00,,,0.00,375.000000,,2013-02-05 19:42:00,
2013-02-05 09:52:00,79.0,63.0,-100.00,ESE,109,4.0,7.0,59,0.00,,,0.00,375.000000,,2013-02-05 19:52:00,
2013-02-05 10:01:00,79.0,63.0,-100.00,ESE,109,4.0,7.0,59,0.00,,,0.00,375.000000,,2013-02-05 20:01:00,
2013-02-05 10:11:00,79.0,63.0,-100.00,ESE,109,4.0,7.0,59,0.00,,,0.00,375.000000,,2013-02-05 20:11:00,
2013-02-05 10:32:00,78.0,63.0,-100.00,WSW,242,8.0,10.0,61,0.00,,,0.00,515.000000,,2013-02-05 20:32:00,
2013-02-05 10:42:00,78.0,63.0,-100.00,WSW,242,8.0,10.0,61,0.00,,,0.00,515.000000,,2013-02-05 20:42:00,
2013-02-05 10:52:00,78.0,63.0,-100.00,WSW,242,8.0,10.0,61,0.00,,,0.00,515.000000,,2013-02-05 20:52:00,
2013-02-05 11:01:00,78.0,63.0,-100.00,WSW,242,8.0,10.0,61,0.00,,,0.00,515.000000,,2013-02-05 21:01:00,
2013-02-05 11:11:00,78.0,63.0,-100.00,WSW,242,8.0,10.0,61,0.00,,,0.00,515.000000,,2013-02-05 21:11:00,
2013-02-05 11:42:00,80.0,64.0,-100.00,WSW,255,7.0,11.0,58,0.00,,,0.00,799.000000,,2013-02-05 21:42:00,
2013-02-05 11:52:00,80.0,64.0,-100.00,WSW,255,7.0,11.0,58,0.00,,,0.00,799.000000,,2013-02-05 21:52:00,
2013-02-05 12:01:00,80.0,64.0,-100.00,WSW,255,7.0,11.0,58,0.00,,,0.00,799.000000,,2013-02-05 22:01:00,
2013-02-05 12:11:00,80.0,64.0,-100.00,WSW,255,7.0,11.0,58,0.00,,,0.00,799.000000,,2013-02-05 22:11:00,
2013-02-05 12:42:00,81.0,61.0,-100.00,WSW,247,7.0,11.0,51,0.00,,,0.00,944.000000,,2013-02-05 22:42:00,
2013-02-05 12:52:00,81.0,61.0,-100.00,WSW,247,7.0,11.0,51,0.00,,,0.00,944.000000,,2013-02-05 22:52:00,
2013-02-05 13:01:00,81.0,61.0,-100.00,WSW,247,7.0,11.0,51,0.00,,,0.00,944.000000,,2013-02-05 23:01:00,
2013-02-05 13:11:00,81.0,61.0,-100.00,WSW,247,7.0,11.0,51,0.00,,,0.00,944.000000,,2013-02-05 23:11:00,
2013-02-05 13:32:00,80.0,62.0,-100.00,WSW,252,7.0,12.0,54,0.00,,,0.00,935.000000,,2013-02-05 23:32:00,
2013-02-05 13:42:00,80.0,62.0,-100.00,WSW,252,7.0,12.0,54,0.00,,,0.00,935.000000,,2013-02-05 23:42:00,
2013-02-05 13:52:00,80.0,62.0,-100.00,WSW,252,7.0,12.0,54,0.00,,,0.00,935.000000,,2013-02-05 23:52:00,
2013-02-05 14:01:00,80.0,62.0,-100.00,WSW,252,7.0,12.0,54,0.00,,,0.00,935.000000,,2013-02-06 00:01:00,
2013-02-05 14:11:00,80.0,62.0,-100.00,WSW,252,7.0,12.0,54,0.00,,,0.00,935.000000,,2013-02-06 00:11:00,
2013-02-05 14:32:00,79.0,63.0,-100.00,WSW,243,6.0,11.0,59,0.00,,,0.00,636.000000,,2013-02-06 00:32:00,
2013-02-05 14:42:00,79.0,63.0,-100.00,WSW,243,6.0,11.0,59,0.00,,,0.00,636.000000,,2013-02-06 00:42:00,
2013-02-05 14:52:00,79.0,63.0,-100.00,WSW,243,6.0,11.0,59,0.00,,,0.00,636.000000,,2013-02-06 00:52:00,
2013-02-05 15:01:00,79.0,63.0,-100.00,WSW,243,6.0,11.0,59,0.00,,,0.00,636.000000,,2013-02-06 01:01:00,
2013-02-05 15:11:00,79.0,63.0,-100.00,WSW,243,6.0,11.0,59,0.00,,,0.00,636.000000,,2013-02-06 01:11:00,
2013-02-05 15:32:00,77.0,64.0,-100.00,SW,235,7.0,10.0,64,0.00,,,0.00,255.000000,,2013-02-06 01:32:00,
2013-02-05 15:42:00,77.0,64.0,-100.00,SW,235,7.0,10.0,64,0.00,,,0.00,255.000000,,2013-02-06 01:42:00,
2013-02-05 15:53:00,77.0,64.0,-100.00,SW,235,7.0,10.0,64,0.00,,,0.00,255.000000,,2013-02-06 01:53:00,
2013-02-05 16:01:00,77.0,64.0,-100.00,SW,235,7.0,10.0,64,0.00,,,0.00,255.000000,,2013-02-06 02:01:00,
2013-02-05 16:11:00,77.0,64.0,-100.00,SW,235,7.0,10.0,64,0.00,,,0.00,255.000000,,2013-02-06 02:11:00,
2013-02-05 16:42:00,77.0,65.0,-100.00,SW,233,6.0,11.0,66,0.00,,,-99.99,208.000000,,2013-02-06 02:42:00,
2013-02-05 16:52:00,77.0,65.0,-100.00,SW,233,6.0,11.0,66,0.00,,,-99.99,208.000000,,2013-02-06 02:52:00,
2013-02-05 17:02:00,77.0,65.0,-100.00,SW,233,6.0,11.0,66,0.00,,,-99.99,208.000000,,2013-02-06 03:02:00,
2013-02-05 17:11:00,77.0,65.0,-100.00,SW,233,6.0,11.0,66,0.00,,,-99.99,208.000000,,2013-02-06 03:11:00,
2013-02-05 17:33:00,77.0,64.0,-100.00,WSW,248,6.0,8.0,64,0.00,,,0.00,175.000000,,2013-02-06 03:33:00,
2013-02-05 17:42:00,77.0,64.0,-100.00,WSW,248,6.0,8.0,64,0.00,,,0.00,175.000000,,2013-02-06 03:42:00,
2013-02-05 17:53:00,77.0,64.0,-100.00,WSW,248,6.0,8.0,64,0.00,,,0.00,175.000000,,2013-02-06 03:53:00,
2013-02-05 18:01:00,77.0,64.0,-100.00,WSW,248,6.0,8.0,64,0.00,,,0.00,175.000000,,2013-02-06 04:01:00,
2013-02-05 18:11:00,77.0,64.0,-100.00,WSW,248,6.0,8.0,64,0.00,,,0.00,175.000000,,2013-02-06 04:11:00,
2013-02-05 18:42:00,75.0,63.0,-100.00,WSW,245,3.0,8.0,67,0.00,,,0.00,48.000000,,2013-02-06 04:42:00,
2013-02-05 18:52:00,75.0,63.0,-100.00,WSW,245,3.0,8.0,67,0.00,,,0.00,48.000000,,2013-02-06 04:52:00,
2013-02-05 19:01:00,75.0,63.0,-100.00,WSW,245,3.0,8.0,67,0.00,,,0.00,48.000000,,2013-02-06 05:01:00,
2013-02-05 19:12:00,75.0,63.0,-100.00,WSW,245,3.0,8.0,67,0.00,,,0.00,48.000000,,2013-02-06 05:12:00,
2013-02-05 19:42:00,74.0,64.0,-100.00,WNW,289,1.0,5.0,70,0.00,,,0.00,0.000000,,2013-02-06 05:42:00,
2013-02-05 19:53:00,74.0,64.0,-100.00,WNW,289,1.0,5.0,70,0.00,,,0.00,0.000000,,2013-02-06 05:53:00,
2013-02-05 20:01:00,74.0,64.0,-100.00,WNW,289,1.0,5.0,70,0.00,,,0.00,0.000000,,2013-02-06 06:01:00,
2013-02-05 20:11:00,74.0,64.0,-100.00,WNW,289,1.0,5.0,70,0.00,,,0.00,0.000000,,2013-02-06 06:11:00,
2013-02-05 20:32:00,74.0,64.0,-100.00,East,91,4.0,6.0,71,0.00,,,-99.99,0.000000,,2013-02-06 06:32:00,
2013-02-05 20:42:00,74.0,64.0,-100.00,East,91,4.0,6.0,71,0.00,,,-99.99,0.000000,,2013-02-06 06:42:00,
2013-02-05 20:52:00,74.0,64.0,-100.00,East,91,4.0,6.0,71,0.00,,,-99.99,0.000000,,2013-02-06 06:52:00,
2013-02-05 21:01:00,74.0,64.0,-100.00,East,91,4.0,6.0,71,0.00,,,-99.99,0.000000,,2013-02-06 07:01:00,
2013-02-05 21:11:00,74.0,64.0,-100.00,East,91,4.0,6.0,71,0.00,,,-99.99,0.000000,,2013-02-06 07:11:00,
2013-02-05 21:32:00,71.0,60.0,-100.00,NE,38,5.0,6.0,69,0.00,,,0.00,0.000000,,2013-02-06 07:32:00,
2013-02-05 21:42:00,71.0,60.0,-100.00,NE,38,5.0,6.0,69,0.00,,,0.00,0.000000,,2013-02-06 07:42:00,
2013-02-05 21:52:00,71.0,60.0,-100.00,NE,38,5.0,6.0,69,0.00,,,0.00,0.000000,,2013-02-06 07:52:00,
2013-02-05 22:01:00,71.0,60.0,-100.00,NE,38,5.0,6.0,69,0.00,,,0.00,0.000000,,2013-02-06 08:01:00,
2013-02-05 22:11:00,71.0,60.0,-100.00,NE,38,5.0,6.0,69,0.00,,,0.00,0.000000,,2013-02-06 08:11:00,
2013-02-05 22:42:00,68.0,58.0,-100.00,NE,45,4.0,7.0,70,0.00,,,0.00,0.000000,,2013-02-06 08:42:00,
2013-02-05 22:53:00,68.0,58.0,-100.00,NE,45,4.0,7.0,70,0.00,,,0.00,0.000000,,2013-02-06 08:53:00,
2013-02-05 23:01:00,68.0,58.0,-100.00,NE,45,4.0,7.0,70,0.00,,,0.00,0.000000,,2013-02-06 09:01:00,
2013-02-05 23:11:00,68.0,58.0,-100.00,NE,45,4.0,7.0,70,0.00,,,0.00,0.000000,,2013-02-06 09:11:00,
2013-02-05 23:32:00,67.0,57.0,-100.00,ENE,58,5.0,8.0,71,0.00,,,0.00,0.000000,,2013-02-06 09:32:00,
2013-02-05 23:42:00,67.0,57.0,-100.00,ENE,58,5.0,8.0,71,0.00,,,0.00,0.000000,,2013-02-06 09:42:00,
2013-02-05 23:52:00,67.0,57.0,-100.00,ENE,58,5.0,8.0,71,0.00,,,0.00,0.000000,,2013-02-06 09:52:00,